Location: Tuebingen alte Sternwarte
(48.5376°N, 9.0555°E)
Time: 11:15:22
(UTC+01:00)

Envisat - Pass Details

Date: 27 September 2017
Orbit: 764 x 766 km, 98.2° (Epoch: 14 December)

Event Time Altitude Azimuth Distance (km) Brightness Sun altitude
Exits shadow 20:06:35 - 128° (SE) 2,404 5.0 -10.0°
Reaches altitude 10° 20:06:53 10° 126° (SE) 2,300 4.9 -10.1°
Maximum altitude 20:11:21 33° 65° (ENE) 1,285 3.8 -10.8°
Drops below altitude 10° 20:15:51 10° 3° (N) 2,315 5.6 -11.5°
Sets 20:18:21 0° 354° (N) 3,246 6.5 -11.9°
